Location: Mason
(37.5237°N, 89.2543°W)
Time: 21:27:10
(UTC+00:00)

Cosmos 1666 - Visible Passes

Search period start: 06 July 2022 00:00
Search period end: 16 July 2022 00:00
Orbit: 489 x 513 km, 82.5° (Epoch: 06 July)

Date Brightness Start Highest point End Pass type
(mag) Time Alt. Az. Time Alt. Az. Time Alt. Az.
06 Jul 4.9 07:55:19 16° ESE 07:56:21 17° E 07:58:51 10° NE visible
06 Jul 4.0 09:30:03 18° WSW 09:31:33 23° WNW 09:34:36 10° NNW visible
07 Jul 5.3 07:36:06 12° E 07:36:47 12° E 07:38:22 10° ENE visible
07 Jul 3.5 09:10:49 28° WSW 09:11:49 33° W 09:15:13 10° NNW visible
08 Jul 2.9 08:51:33 43° WSW 08:52:07 47° W 08:55:43 10° N visible
09 Jul 2.5 08:32:16 70° WSW 08:32:25 71° W 08:36:08 10° N visible
10 Jul 2.7 08:12:58 74° NE 08:12:58 74° NE 08:16:28 10° N visible
11 Jul 3.5 07:53:38 47° ENE 07:53:38 47° ENE 07:56:41 10° NNE visible
12 Jul 4.3 07:34:16 31° ENE 07:34:16 31° ENE 07:36:49 10° NNE visible
12 Jul 4.9 09:08:59 12° WNW 09:08:59 12° WNW 09:10:23 10° NW visible
13 Jul 4.9 07:14:53 21° ENE 07:14:53 21° ENE 07:16:50 10° NE visible
13 Jul 4.6 08:49:36 16° WNW 08:49:36 16° WNW 08:51:33 10° NW visible
14 Jul 5.3 06:55:29 15° ENE 06:55:29 15° ENE 06:56:41 10° NE visible
14 Jul 4.4 08:30:11 21° NW 08:30:11 21° NW 08:32:20 10° NNW visible
15 Jul 5.7 06:36:03 10° ENE 06:36:03 10° ENE 06:36:10 10° ENE visible
15 Jul 4.3 08:10:46 26° NW 08:10:46 26° NW 08:12:55 10° NNW visible
